Time,TemperatureF,DewpointF,PressureIn,WindDirection,WindDirectionDegrees,WindSpeedMPH,WindSpeedGustMPH,Humidity,HourlyPrecipIn,Conditions,Clouds,dailyrainin,SoftwareType,DateUTC
2013-01-17 00:03:00,28.8,24.3,30.09,SE,135,0.0,0.0,83,0.00,,,0.00,WUHU216HW,2013-01-17 06:03:00,
2013-01-17 00:08:00,28.8,24.3,30.10,East,90,0.0,0.0,83,0.00,,,0.00,WUHU216HW,2013-01-17 06:08:00,
2013-01-17 00:14:00,29.0,24.5,30.10,ENE,68,0.0,0.4,83,0.00,,,0.00,WUHU216HW,2013-01-17 06:14:00,
2013-01-17 00:19:00,29.0,24.8,30.10,ENE,68,0.0,0.4,84,0.00,,,0.00,WUHU216HW,2013-01-17 06:19:00,
2013-01-17 00:24:00,29.2,25.0,30.10,NE,45,0.0,0.4,84,0.00,,,0.00,WUHU216HW,2013-01-17 06:24:00,
2013-01-17 00:29:00,29.5,25.3,30.11,SE,135,0.0,0.4,84,0.00,,,0.00,WUHU216HW,2013-01-17 06:29:00,
2013-01-17 00:34:00,29.5,25.3,30.11,SE,135,0.0,0.0,84,0.00,,,0.00,WUHU216HW,2013-01-17 06:34:00,
2013-01-17 00:39:00,29.7,25.5,30.11,SE,135,0.0,0.0,84,0.00,,,0.00,WUHU216HW,2013-01-17 06:39:00,
2013-01-17 00:44:00,29.9,25.7,30.11,SE,135,0.0,0.0,84,0.00,,,0.00,WUHU216HW,2013-01-17 06:44:00,
2013-01-17 00:49:00,29.9,25.9,30.11,NE,45,0.2,0.2,85,0.00,,,0.00,WUHU216HW,2013-01-17 06:49:00,
2013-01-17 00:54:00,29.9,26.0,30.12,NE,45,0.0,0.2,85,0.00,,,0.00,WUHU216HW,2013-01-17 06:54:00,
2013-01-17 00:59:00,30.1,26.2,30.12,NE,45,0.0,0.0,85,0.00,,,0.00,WUHU216HW,2013-01-17 06:59:00,
2013-01-17 01:04:00,30.3,26.4,30.12,NE,45,0.0,0.2,85,0.00,,,0.00,WUHU216HW,2013-01-17 07:04:00,
2013-01-17 01:09:00,30.5,26.5,30.13,NE,45,0.0,0.2,85,0.00,,,0.00,WUHU216HW,2013-01-17 07:09:00,
2013-01-17 01:14:00,30.5,26.5,30.13,NE,45,0.0,0.0,85,0.00,,,0.00,WUHU216HW,2013-01-17 07:14:00,
2013-01-17 01:19:00,30.7,26.7,30.14,NE,45,0.0,0.2,85,0.00,,,0.00,WUHU216HW,2013-01-17 07:19:00,
2013-01-17 01:24:00,30.7,26.7,30.14,NE,45,0.0,0.2,85,0.00,,,0.00,WUHU216HW,2013-01-17 07:24:00,
2013-01-17 01:29:00,30.7,26.7,30.14,NE,45,0.0,0.0,85,0.00,,,0.00,WUHU216HW,2013-01-17 07:29:00,
2013-01-17 01:34:00,30.7,26.7,30.14,NE,45,0.0,0.0,85,0.00,,,0.00,WUHU216HW,2013-01-17 07:34:00,
2013-01-17 01:39:00,30.7,26.7,30.14,NE,45,0.0,0.0,85,0.00,,,0.00,WUHU216HW,2013-01-17 07:39:00,
2013-01-17 01:44:00,30.7,26.7,30.15,North,0,0.0,0.4,85,0.00,,,0.00,WUHU216HW,2013-01-17 07:44:00,
2013-01-17 01:49:00,30.9,26.9,30.15,North,0,0.0,0.4,85,0.00,,,0.00,WUHU216HW,2013-01-17 07:49:00,
2013-01-17 01:54:00,30.9,26.9,30.15,North,0,0.0,0.0,85,0.00,,,0.00,WUHU216HW,2013-01-17 07:54:00,
2013-01-17 01:59:00,30.9,26.9,30.15,North,0,0.2,0.2,85,0.00,,,0.00,WUHU216HW,2013-01-17 07:59:00,
2013-01-17 02:04:00,31.1,27.1,30.16,NNE,23,0.0,0.2,85,0.00,,,0.00,WUHU216HW,2013-01-17 08:04:00,
2013-01-17 02:09:00,31.1,27.1,30.16,NNE,23,0.0,0.2,85,0.00,,,0.00,WUHU216HW,2013-01-17 08:09:00,
2013-01-17 02:14:00,31.1,27.1,30.17,NNE,23,0.0,0.2,85,0.00,,,0.00,WUHU216HW,2013-01-17 08:14:00,
2013-01-17 02:19:00,31.3,27.3,30.17,NNE,23,0.0,0.2,85,0.00,,,0.00,WUHU216HW,2013-01-17 08:19:00,
2013-01-17 02:24:00,31.3,27.3,30.17,North,0,0.2,0.4,85,0.00,,,0.00,WUHU216HW,2013-01-17 08:24:00,
2013-01-17 02:29:00,31.4,27.3,30.17,NNE,23,0.7,1.1,85,0.00,,,0.00,WUHU216HW,2013-01-17 08:29:00,
2013-01-17 02:34:00,31.4,27.3,30.17,North,0,0.4,1.1,85,0.00,,,0.00,WUHU216HW,2013-01-17 08:34:00,
2013-01-17 02:39:00,31.4,27.4,30.18,North,0,0.0,0.7,85,0.00,,,0.00,WUHU216HW,2013-01-17 08:39:00,
2013-01-17 02:44:00,31.4,27.1,30.18,North,0,1.1,1.3,84,0.00,,,0.00,WUHU216HW,2013-01-17 08:44:00,
2013-01-17 02:49:00,31.2,26.6,30.18,NNE,23,0.0,1.3,83,0.00,,,0.00,WUHU216HW,2013-01-17 08:49:00,
2013-01-17 02:54:00,30.8,26.2,30.18,NNW,338,0.0,0.9,83,0.00,,,0.00,WUHU216HW,2013-01-17 08:54:00,
2013-01-17 02:59:00,30.6,25.8,30.18,North,0,0.2,0.7,82,0.00,,,0.00,WUHU216HW,2013-01-17 08:59:00,
2013-01-17 03:04:00,30.3,25.2,30.19,NNE,23,0.7,1.1,81,0.00,,,0.00,WUHU216HW,2013-01-17 09:04:00,
2013-01-17 03:09:00,30.1,24.7,30.20,NNE,23,0.4,1.1,80,0.00,,,0.00,WUHU216HW,2013-01-17 09:09:00,
2013-01-17 03:14:00,29.7,24.0,30.20,NNE,23,0.2,2.5,79,0.00,,,0.00,WUHU216HW,2013-01-17 09:14:00,
2013-01-17 03:19:00,29.6,23.9,30.21,North,0,0.4,2.5,79,0.00,,,0.00,WUHU216HW,2013-01-17 09:19:00,
2013-01-17 03:24:00,29.4,23.5,30.21,NNE,23,0.9,1.1,78,0.00,,,0.00,WUHU216HW,2013-01-17 09:24:00,
2013-01-17 03:29:00,29.3,23.0,30.21,North,0,0.4,1.6,77,0.00,,,0.00,WUHU216HW,2013-01-17 09:29:00,
2013-01-17 03:34:00,28.9,22.3,30.20,North,0,0.4,1.6,76,0.00,,,0.00,WUHU216HW,2013-01-17 09:34:00,
2013-01-17 03:39:00,28.9,22.3,30.21,North,0,0.4,1.1,76,0.00,,,0.00,WUHU216HW,2013-01-17 09:39:00,
2013-01-17 03:44:00,28.8,21.9,30.21,NNE,23,0.2,1.8,75,0.00,,,0.00,WUHU216HW,2013-01-17 09:44:00,
2013-01-17 03:49:00,28.6,21.7,30.21,North,0,0.7,1.8,75,0.00,,,0.00,WUHU216HW,2013-01-17 09:49:00,
2013-01-17 03:54:00,28.4,21.5,30.21,North,0,1.6,1.6,75,0.00,,,0.00,WUHU216HW,2013-01-17 09:54:00,
2013-01-17 03:59:00,28.2,21.3,30.21,North,0,1.1,2.2,75,0.00,,,0.00,WUHU216HW,2013-01-17 09:59:00,
2013-01-17 04:04:00,28.0,20.9,30.22,NNE,23,3.1,3.1,74,0.00,,,0.00,WUHU216HW,2013-01-17 10:04:00,
2013-01-17 04:09:00,28.0,20.5,30.22,North,0,1.1,3.1,73,0.00,,,0.00,WUHU216HW,2013-01-17 10:09:00,
2013-01-17 04:14:00,28.0,20.1,30.22,NE,45,1.8,2.2,72,0.00,,,0.00,WUHU216HW,2013-01-17 10:14:00,
2013-01-17 04:19:00,28.0,20.2,30.23,NNE,23,1.1,2.2,72,0.00,,,0.00,WUHU216HW,2013-01-17 10:19:00,
2013-01-17 04:24:00,27.8,20.0,30.23,NNE,23,1.1,2.2,72,0.00,,,0.00,WUHU216HW,2013-01-17 10:24:00,
2013-01-17 04:29:00,27.6,19.5,30.23,North,0,0.7,1.8,71,0.00,,,0.00,WUHU216HW,2013-01-17 10:29:00,
2013-01-17 04:34:00,27.4,19.3,30.23,North,0,1.1,1.8,71,0.00,,,0.00,WUHU216HW,2013-01-17 10:34:00,
2013-01-17 04:39:00,27.4,19.3,30.23,NNW,338,0.9,1.1,71,0.00,,,0.00,WUHU216HW,2013-01-17 10:39:00,
2013-01-17 04:44:00,27.2,19.1,30.23,ENE,68,0.4,1.1,71,0.00,,,0.00,WUHU216HW,2013-01-17 10:44:00,
2013-01-17 04:49:00,27.1,19.0,30.23,NNE,23,1.1,1.1,71,0.00,,,0.00,WUHU216HW,2013-01-17 10:49:00,
2013-01-17 04:54:00,26.9,19.2,30.24,North,0,0.2,1.1,72,0.00,,,0.00,WUHU216HW,2013-01-17 10:54:00,
2013-01-17 04:59:00,26.8,19.0,30.24,North,0,0.7,0.7,72,0.00,,,0.00,WUHU216HW,2013-01-17 10:59:00,
2013-01-17 05:04:00,26.8,19.0,30.25,North,0,0.2,0.9,72,0.00,,,0.00,WUHU216HW,2013-01-17 11:04:00,
2013-01-17 05:09:00,26.6,18.8,30.25,North,0,0.7,0.9,72,0.00,,,0.00,WUHU216HW,2013-01-17 11:09:00,
2013-01-17 05:14:00,26.4,18.6,30.25,NNE,23,0.4,0.7,72,0.00,,,0.00,WUHU216HW,2013-01-17 11:14:00,
2013-01-17 05:19:00,26.3,18.6,30.26,NE,45,0.4,0.9,72,0.00,,,0.00,WUHU216HW,2013-01-17 11:19:00,
2013-01-17 05:24:00,26.1,18.0,30.26,SSW,203,1.1,1.1,71,0.00,,,0.00,WUHU216HW,2013-01-17 11:24:00,
2013-01-17 05:29:00,25.9,17.9,30.26,North,0,0.2,1.1,71,0.00,,,0.00,WUHU216HW,2013-01-17 11:29:00,
2013-01-17 05:34:00,25.7,17.4,30.26,North,0,0.7,1.1,70,0.00,,,0.00,WUHU216HW,2013-01-17 11:34:00,
2013-01-17 05:39:00,25.6,17.2,30.26,North,0,0.0,0.7,70,0.00,,,0.00,WUHU216HW,2013-01-17 11:39:00,
2013-01-17 05:44:00,25.5,17.1,30.26,North,0,0.0,0.4,70,0.00,,,0.00,WUHU216HW,2013-01-17 11:44:00,
2013-01-17 05:49:00,25.3,16.9,30.27,NNE,23,0.2,0.4,70,0.00,,,0.00,WUHU216HW,2013-01-17 11:49:00,
2013-01-17 05:54:00,25.3,16.9,30.27,North,0,0.4,0.7,70,0.00,,,0.00,WUHU216HW,2013-01-17 11:54:00,
2013-01-17 05:59:00,25.1,16.7,30.27,NNE,23,0.4,0.9,70,0.00,,,0.00,WUHU216HW,2013-01-17 11:59:00,
2013-01-17 06:04:00,24.9,16.6,30.27,NNW,338,0.2,0.9,70,0.00,,,0.00,WUHU216HW,2013-01-17 12:04:00,
2013-01-17 06:09:00,24.7,16.1,30.27,NNE,23,0.2,0.4,69,0.00,,,0.00,WUHU216HW,2013-01-17 12:09:00,
2013-01-17 06:14:00,24.7,16.1,30.27,North,0,0.0,0.4,69,0.00,,,0.00,WUHU216HW,2013-01-17 12:14:00,
2013-01-17 06:19:00,24.7,16.0,30.27,North,0,0.0,0.0,69,0.00,,,0.00,WUHU216HW,2013-01-17 12:19:00,
2013-01-17 06:24:00,24.5,15.8,30.27,North,0,0.0,0.0,69,0.00,,,0.00,WUHU216HW,2013-01-17 12:24:00,
2013-01-17 06:29:00,24.5,15.8,30.28,North,0,0.2,0.2,69,0.00,,,0.00,WUHU216HW,2013-01-17 12:29:00,
2013-01-17 06:34:00,24.5,15.8,30.28,North,0,0.0,0.2,69,0.00,,,0.00,WUHU216HW,2013-01-17 12:34:00,
2013-01-17 06:39:00,24.1,15.4,30.28,NNW,338,0.4,0.7,69,0.00,,,0.00,WUHU216HW,2013-01-17 12:39:00,
2013-01-17 06:44:00,24.1,15.4,30.29,NNE,23,0.4,0.7,69,0.00,,,0.00,WUHU216HW,2013-01-17 12:44:00,
2013-01-17 06:49:00,23.8,15.2,30.29,North,0,0.7,1.1,69,0.00,,,0.00,WUHU216HW,2013-01-17 12:49:00,
2013-01-17 06:54:00,23.7,15.1,30.29,North,0,0.4,1.1,69,0.00,,,0.00,WUHU216HW,2013-01-17 12:54:00,
2013-01-17 06:59:00,23.6,14.7,30.29,NNW,338,0.0,0.4,68,0.00,,,0.00,WUHU216HW,2013-01-17 12:59:00,
2013-01-17 07:04:00,23.4,14.4,30.29,North,0,0.2,0.9,68,0.00,,,0.00,WUHU216HW,2013-01-17 13:04:00,
2013-01-17 07:09:00,23.2,14.2,30.30,North,0,0.0,0.9,68,0.00,,,0.00,WUHU216HW,2013-01-17 13:09:00,
2013-01-17 07:14:00,23.1,14.2,30.30,North,0,0.2,0.4,68,0.00,,,0.00,WUHU216HW,2013-01-17 13:14:00,
2013-01-17 07:19:00,22.9,14.3,30.30,North,0,0.4,0.4,69,0.00,,,0.00,WUHU216HW,2013-01-17 13:19:00,
2013-01-17 07:24:00,22.6,13.7,30.30,North,0,0.4,0.7,68,0.00,,,0.00,WUHU216HW,2013-01-17 13:24:00,
2013-01-17 07:29:00,22.6,13.7,30.30,NNE,23,0.0,1.6,68,0.00,,,0.00,WUHU216HW,2013-01-17 13:29:00,
2013-01-17 07:34:00,22.5,13.2,30.31,NNE,23,0.4,1.8,67,0.00,,,0.00,WUHU216HW,2013-01-17 13:34:00,
2013-01-17 07:39:00,22.2,12.6,30.31,North,0,1.3,1.8,66,0.00,,,0.00,WUHU216HW,2013-01-17 13:39:00,
2013-01-17 07:44:00,22.2,12.6,30.31,NNE,23,0.4,1.8,66,0.00,,,0.00,WUHU216HW,2013-01-17 13:44:00,
2013-01-17 07:49:00,21.9,12.4,30.31,NNE,23,1.1,1.1,66,0.00,,,0.00,WUHU216HW,2013-01-17 13:49:00,
2013-01-17 07:54:00,22.1,12.2,30.31,NNW,338,0.4,1.6,65,0.00,,,0.00,WUHU216HW,2013-01-17 13:54:00,
2013-01-17 07:59:00,21.9,12.0,30.32,North,0,0.9,1.6,65,0.00,,,0.00,WUHU216HW,2013-01-17 13:59:00,
2013-01-17 08:04:00,22.0,12.1,30.32,NE,45,0.4,1.3,65,0.00,,,0.00,WUHU216HW,2013-01-17 14:04:00,
2013-01-17 08:09:00,22.0,12.1,30.32,North,0,1.1,1.3,65,0.00,,,0.00,WUHU216HW,2013-01-17 14:09:00,
2013-01-17 08:14:00,21.9,11.7,30.32,NNE,23,0.4,1.1,64,0.00,,,0.00,WUHU216HW,2013-01-17 14:14:00,
2013-01-17 08:19:00,21.9,11.6,30.33,North,0,0.4,1.1,64,0.00,,,0.00,WUHU216HW,2013-01-17 14:19:00,
2013-01-17 08:24:00,22.1,11.4,30.33,North,0,1.1,1.1,63,0.00,,,0.00,WUHU216HW,2013-01-17 14:24:00,
2013-01-17 08:29:00,22.1,11.1,30.33,North,0,0.7,1.3,62,0.00,,,0.00,WUHU216HW,2013-01-17 14:29:00,
2013-01-17 08:34:00,22.7,11.3,30.34,WNW,293,0.7,2.5,61,0.00,,,0.00,WUHU216HW,2013-01-17 14:34:00,
2013-01-17 08:39:00,22.9,11.1,30.34,North,0,1.8,2.5,60,0.00,,,0.00,WUHU216HW,2013-01-17 14:39:00,
2013-01-17 08:44:00,22.6,10.5,30.34,NNE,23,0.4,2.5,59,0.00,,,0.00,WUHU216HW,2013-01-17 14:44:00,
2013-01-17 08:49:00,22.6,10.5,30.34,ENE,68,0.4,1.6,59,0.00,,,0.00,WUHU216HW,2013-01-17 14:49:00,
2013-01-17 08:54:00,22.6,10.0,30.34,North,0,1.1,1.8,58,0.00,,,0.00,WUHU216HW,2013-01-17 14:54:00,
2013-01-17 08:59:00,22.6,10.4,30.34,NNE,23,0.4,1.8,59,0.00,,,0.00,WUHU216HW,2013-01-17 14:59:00,
2013-01-17 09:04:00,22.8,10.7,30.34,NNW,338,1.1,1.1,59,0.00,,,0.00,WUHU216HW,2013-01-17 15:04:00,
2013-01-17 09:09:00,23.0,10.8,30.34,North,0,0.0,1.6,59,0.00,,,0.00,WUHU216HW,2013-01-17 15:09:00,
2013-01-17 09:14:00,23.0,10.4,30.34,East,90,0.9,2.2,58,0.00,,,0.00,WUHU216HW,2013-01-17 15:14:00,
2013-01-17 09:19:00,23.5,10.9,30.34,ESE,113,0.4,2.2,58,0.00,,,0.00,WUHU216HW,2013-01-17 15:19:00,
2013-01-17 09:24:00,23.8,10.4,30.34,North,0,1.8,1.8,56,0.00,,,0.00,WUHU216HW,2013-01-17 15:24:00,
2013-01-17 09:29:00,24.0,10.6,30.34,NNE,23,1.6,1.8,56,0.00,,,0.00,WUHU216HW,2013-01-17 15:29:00,
2013-01-17 09:34:00,24.0,10.1,30.34,North,0,1.1,2.2,55,0.00,,,0.00,WUHU216HW,2013-01-17 15:34:00,
2013-01-17 09:39:00,23.7,10.3,30.34,North,0,1.8,2.2,56,0.00,,,0.00,WUHU216HW,2013-01-17 15:39:00,
2013-01-17 09:44:00,23.9,9.7,30.34,NNW,338,1.1,3.8,54,0.00,,,0.00,WUHU216HW,2013-01-17 15:44:00,
2013-01-17 09:49:00,25.3,11.4,30.34,North,0,1.8,3.8,55,0.00,,,0.00,WUHU216HW,2013-01-17 15:49:00,
2013-01-17 09:54:00,26.2,12.2,30.34,NNW,338,0.4,2.0,55,0.00,,,0.00,WUHU216HW,2013-01-17 15:54:00,
2013-01-17 09:59:00,26.2,11.7,30.35,NNW,338,0.4,2.0,54,0.00,,,0.00,WUHU216HW,2013-01-17 15:59:00,
2013-01-17 10:04:00,26.1,11.3,30.35,North,0,0.7,1.8,53,0.00,,,0.00,WUHU216HW,2013-01-17 16:04:00,
2013-01-17 10:09:00,26.0,11.6,30.35,North,0,0.0,1.8,54,0.00,,,0.00,WUHU216HW,2013-01-17 16:09:00,
2013-01-17 10:14:00,26.1,11.7,30.35,North,0,0.9,1.3,54,0.00,,,0.00,WUHU216HW,2013-01-17 16:14:00,
2013-01-17 10:19:00,26.0,11.6,30.35,NNE,23,0.4,1.1,54,0.00,,,0.00,WUHU216HW,2013-01-17 16:19:00,
2013-01-17 10:24:00,26.1,11.2,30.36,NNE,23,0.9,2.5,53,0.00,,,0.00,WUHU216HW,2013-01-17 16:24:00,
2013-01-17 10:29:00,26.3,11.4,30.35,NNW,338,0.2,2.5,53,0.00,,,0.00,WUHU216HW,2013-01-17 16:29:00,
2013-01-17 10:34:00,26.9,12.1,30.35,North,0,0.2,1.1,53,0.00,,,0.00,WUHU216HW,2013-01-17 16:34:00,
2013-01-17 10:39:00,27.7,12.8,30.36,NNW,338,0.7,1.8,53,0.00,,,0.00,WUHU216HW,2013-01-17 16:39:00,
2013-01-17 10:44:00,28.7,13.7,30.35,NNE,23,1.1,1.8,53,0.00,,,0.00,WUHU216HW,2013-01-17 16:44:00,
2013-01-17 10:49:00,30.0,14.5,30.35,East,90,1.6,1.6,52,0.00,,,0.00,WUHU216HW,2013-01-17 16:49:00,
2013-01-17 10:54:00,31.1,15.5,30.35,North,0,1.1,1.8,52,0.00,,,0.00,WUHU216HW,2013-01-17 16:54:00,
2013-01-17 10:59:00,31.3,14.7,30.35,NNE,23,1.3,2.7,50,0.00,,,0.00,WUHU216HW,2013-01-17 16:59:00,
2013-01-17 11:04:00,30.5,14.0,30.36,NNE,23,1.3,2.7,50,0.00,,,0.00,WUHU216HW,2013-01-17 17:04:00,
2013-01-17 11:09:00,29.6,12.7,30.36,NNW,338,0.2,2.5,49,0.00,,,0.00,WUHU216HW,2013-01-17 17:09:00,
2013-01-17 11:14:00,28.7,11.9,30.36,NNE,23,0.7,2.5,49,0.00,,,0.00,WUHU216HW,2013-01-17 17:14:00,
2013-01-17 11:19:00,28.6,12.2,30.35,North,0,0.9,2.2,50,0.00,,,0.00,WUHU216HW,2013-01-17 17:19:00,
2013-01-17 11:24:00,28.4,12.1,30.35,North,0,1.3,2.2,50,0.00,,,0.00,WUHU216HW,2013-01-17 17:24:00,
2013-01-17 11:29:00,28.0,11.2,30.35,ENE,68,1.1,4.3,49,0.00,,,0.00,WUHU216HW,2013-01-17 17:29:00,
2013-01-17 11:34:00,27.7,11.4,30.36,North,0,1.8,4.3,50,0.00,,,0.00,WUHU216HW,2013-01-17 17:34:00,
2013-01-17 11:39:00,27.8,11.0,30.35,NNE,23,0.4,3.4,49,0.00,,,0.00,WUHU216HW,2013-01-17 17:39:00,
2013-01-17 11:44:00,28.0,11.7,30.35,NNE,23,0.9,1.3,50,0.00,,,0.00,WUHU216HW,2013-01-17 17:44:00,
2013-01-17 11:49:00,28.4,12.1,30.35,NW,315,1.1,1.3,50,0.00,,,0.00,WUHU216HW,2013-01-17 17:49:00,
2013-01-17 11:54:00,28.6,12.3,30.35,NNE,23,0.4,2.0,50,0.00,,,0.00,WUHU216HW,2013-01-17 17:54:00,
2013-01-17 11:59:00,28.4,12.1,30.35,North,0,0.9,2.2,50,0.00,,,0.00,WUHU216HW,2013-01-17 17:59:00,
2013-01-17 12:04:00,28.0,11.3,30.35,NNE,23,1.6,2.2,49,0.00,,,0.00,WUHU216HW,2013-01-17 18:04:00,
2013-01-17 12:09:00,27.9,11.5,30.35,North,0,0.4,2.2,50,0.00,,,0.00,WUHU216HW,2013-01-17 18:09:00,
2013-01-17 12:14:00,27.9,11.6,30.35,NNE,23,1.1,3.8,50,0.00,,,0.00,WUHU216HW,2013-01-17 18:14:00,
2013-01-17 12:19:00,27.9,11.6,30.36,NNE,23,0.9,3.8,50,0.00,,,0.00,WUHU216HW,2013-01-17 18:19:00,
2013-01-17 12:24:00,28.1,12.2,30.35,North,0,0.9,1.3,51,0.00,,,0.00,WUHU216HW,2013-01-17 18:24:00,
2013-01-17 12:29:00,28.1,12.2,30.35,North,0,0.4,1.6,51,0.00,,,0.00,WUHU216HW,2013-01-17 18:29:00,
2013-01-17 12:34:00,28.3,12.4,30.35,NNE,23,0.9,1.6,51,0.00,,,0.00,WUHU216HW,2013-01-17 18:34:00,
2013-01-17 12:39:00,28.5,12.6,30.35,North,0,0.4,1.1,51,0.00,,,0.00,WUHU216HW,2013-01-17 18:39:00,
2013-01-17 12:44:00,28.6,12.7,30.35,NE,45,0.4,2.0,51,0.00,,,0.00,WUHU216HW,2013-01-17 18:44:00,
2013-01-17 12:49:00,28.6,12.7,30.35,NE,45,0.7,2.0,51,0.00,,,0.00,WUHU216HW,2013-01-17 18:49:00,
2013-01-17 12:54:00,28.6,12.7,30.35,NNE,23,0.4,3.8,51,0.00,,,0.00,WUHU216HW,2013-01-17 18:54:00,
2013-01-17 12:59:00,28.4,12.5,30.35,NNE,23,1.8,3.8,51,0.00,,,0.00,WUHU216HW,2013-01-17 18:59:00,
2013-01-17 13:05:00,28.2,11.9,30.35,North,0,0.7,2.5,50,0.00,,,0.00,WUHU216HW,2013-01-17 19:05:00,
2013-01-17 13:10:00,28.0,11.7,30.35,NNE,23,1.1,2.5,50,0.00,,,0.00,WUHU216HW,2013-01-17 19:10:00,
2013-01-17 13:15:00,28.0,11.7,30.35,North,0,2.2,2.5,50,0.00,,,0.00,WUHU216HW,2013-01-17 19:15:00,
2013-01-17 13:20:00,28.0,11.7,30.35,NNE,23,1.3,2.2,50,0.00,,,0.00,WUHU216HW,2013-01-17 19:20:00,
2013-01-17 13:25:00,27.8,11.5,30.35,NW,315,1.6,2.2,50,0.00,,,0.00,WUHU216HW,2013-01-17 19:25:00,
2013-01-17 13:30:00,27.9,12.0,30.35,North,0,1.3,2.5,51,0.00,,,0.00,WUHU216HW,2013-01-17 19:30:00,
2013-01-17 13:35:00,27.7,11.9,30.35,NE,45,1.3,2.5,51,0.00,,,0.00,WUHU216HW,2013-01-17 19:35:00,
2013-01-17 13:40:00,27.5,11.7,30.35,NNE,23,1.3,1.6,51,0.00,,,0.00,WUHU216HW,2013-01-17 19:40:00,
2013-01-17 13:45:00,27.6,11.7,30.35,North,0,0.7,2.0,51,0.00,,,0.00,WUHU216HW,2013-01-17 19:45:00,
2013-01-17 13:50:00,27.4,12.0,30.35,North,0,1.8,2.0,52,0.00,,,0.00,WUHU216HW,2013-01-17 19:50:00,
2013-01-17 13:55:00,27.4,12.1,30.35,NNE,23,1.3,3.4,52,0.00,,,0.00,WUHU216HW,2013-01-17 19:55:00,
2013-01-17 14:00:00,27.4,11.1,30.36,SE,135,3.4,3.4,50,0.00,,,0.00,WUHU216HW,2013-01-17 20:00:00,
2013-01-17 14:05:00,27.0,10.7,30.36,North,0,1.8,3.4,50,0.00,,,0.00,WUHU216HW,2013-01-17 20:05:00,
2013-01-17 14:10:00,27.0,10.3,30.36,NNE,23,1.3,3.6,49,0.00,,,0.00,WUHU216HW,2013-01-17 20:10:00,
2013-01-17 14:15:00,26.9,10.2,30.36,North,0,0.9,3.6,49,0.00,,,0.00,WUHU216HW,2013-01-17 20:15:00,
2013-01-17 14:20:00,26.7,10.0,30.36,SE,135,1.8,3.4,49,0.00,,,0.00,WUHU216HW,2013-01-17 20:20:00,
2013-01-17 14:25:00,26.7,10.0,30.36,North,0,1.8,3.4,49,0.00,,,0.00,WUHU216HW,2013-01-17 20:25:00,
2013-01-17 14:30:00,26.7,10.0,30.36,NNE,23,1.8,4.9,49,0.00,,,0.00,WUHU216HW,2013-01-17 20:30:00,
2013-01-17 14:35:00,26.7,10.5,30.36,NNE,23,1.3,4.9,50,0.00,,,0.00,WUHU216HW,2013-01-17 20:35:00,
2013-01-17 14:40:00,26.7,10.5,30.36,NNE,23,0.7,2.5,50,0.00,,,0.00,WUHU216HW,2013-01-17 20:40:00,
2013-01-17 14:45:00,26.9,10.6,30.35,NNE,23,0.9,2.5,50,0.00,,,0.00,WUHU216HW,2013-01-17 20:45:00,
2013-01-17 14:50:00,26.8,10.6,30.35,NNE,23,1.1,1.8,50,0.00,,,0.00,WUHU216HW,2013-01-17 20:50:00,
2013-01-17 14:55:00,26.9,11.1,30.35,NNE,23,1.1,1.8,51,0.00,,,0.00,WUHU216HW,2013-01-17 20:55:00,
2013-01-17 15:00:00,26.9,11.1,30.35,NNE,23,0.7,1.6,51,0.00,,,0.00,WUHU216HW,2013-01-17 21:00:00,
2013-01-17 15:05:00,26.9,11.2,30.35,North,0,0.7,1.6,51,0.00,,,0.00,WUHU216HW,2013-01-17 21:05:00,
2013-01-17 15:10:00,27.0,11.6,30.35,NNE,23,0.7,1.1,52,0.00,,,0.00,WUHU216HW,2013-01-17 21:10:00,
2013-01-17 15:15:00,27.0,11.2,30.35,NNE,23,0.4,2.5,51,0.00,,,0.00,WUHU216HW,2013-01-17 21:15:00,
2013-01-17 15:20:00,26.9,11.5,30.35,North,0,1.1,2.5,52,0.00,,,0.00,WUHU216HW,2013-01-17 21:20:00,
2013-01-17 15:25:00,26.9,11.1,30.35,NNE,23,0.4,1.3,51,0.00,,,0.00,WUHU216HW,2013-01-17 21:25:00,
2013-01-17 15:30:00,26.7,11.4,30.35,NE,45,0.4,1.3,52,0.00,,,0.00,WUHU216HW,2013-01-17 21:30:00,
2013-01-17 15:35:00,26.8,11.5,30.35,NNE,23,0.2,1.1,52,0.00,,,0.00,WUHU216HW,2013-01-17 21:35:00,
2013-01-17 15:40:00,26.8,11.9,30.35,NNE,23,0.0,1.1,53,0.00,,,0.00,WUHU216HW,2013-01-17 21:40:00,
2013-01-17 15:45:00,26.9,12.0,30.36,North,0,1.1,1.1,53,0.00,,,0.00,WUHU216HW,2013-01-17 21:45:00,
2013-01-17 15:50:00,26.9,12.0,30.36,NNW,338,0.7,1.1,53,0.00,,,0.00,WUHU216HW,2013-01-17 21:50:00,
2013-01-17 15:55:00,27.0,12.5,30.36,North,0,1.3,1.3,54,0.00,,,0.00,WUHU216HW,2013-01-17 21:55:00,
2013-01-17 16:00:00,26.8,12.3,30.36,NNE,23,0.9,1.3,54,0.00,,,0.00,WUHU216HW,2013-01-17 22:00:00,
2013-01-17 16:05:00,26.6,12.1,30.36,NE,45,1.8,1.8,54,0.00,,,0.00,WUHU216HW,2013-01-17 22:05:00,
2013-01-17 16:10:00,26.5,12.1,30.36,NE,45,1.3,1.8,54,0.00,,,0.00,WUHU216HW,2013-01-17 22:10:00,
2013-01-17 16:15:00,26.3,11.8,30.36,NNE,23,1.6,1.8,54,0.00,,,0.00,WUHU216HW,2013-01-17 22:15:00,
2013-01-17 16:20:00,26.2,12.2,30.36,NNE,23,0.4,1.8,55,0.00,,,0.00,WUHU216HW,2013-01-17 22:20:00,
2013-01-17 16:25:00,26.0,12.0,30.37,NNE,23,0.2,1.6,55,0.00,,,0.00,WUHU216HW,2013-01-17 22:25:00,
2013-01-17 16:30:00,25.8,11.8,30.37,NE,45,1.3,1.6,55,0.00,,,0.00,WUHU216HW,2013-01-17 22:30:00,
2013-01-17 16:35:00,25.6,11.6,30.37,NNE,23,1.1,1.3,55,0.00,,,0.00,WUHU216HW,2013-01-17 22:35:00,
2013-01-17 16:40:00,25.4,11.5,30.37,NNE,23,0.2,1.1,55,0.00,,,0.00,WUHU216HW,2013-01-17 22:40:00,
2013-01-17 16:45:00,25.4,11.5,30.38,NE,45,0.4,0.9,55,0.00,,,0.00,WUHU216HW,2013-01-17 22:45:00,
2013-01-17 16:50:00,25.4,11.4,30.38,NNE,23,0.7,0.7,55,0.00,,,0.00,WUHU216HW,2013-01-17 22:50:00,
2013-01-17 16:55:00,25.1,11.6,30.38,NNE,23,0.0,0.7,56,0.00,,,0.00,WUHU216HW,2013-01-17 22:55:00,
2013-01-17 17:00:00,24.9,11.4,30.38,North,0,0.0,0.4,56,0.00,,,0.00,WUHU216HW,2013-01-17 23:00:00,
2013-01-17 17:05:00,24.9,11.4,30.38,North,0,0.0,0.2,56,0.00,,,0.00,WUHU216HW,2013-01-17 23:05:00,
2013-01-17 17:10:00,24.9,11.4,30.38,NE,45,0.0,0.0,56,0.00,,,0.00,WUHU216HW,2013-01-17 23:10:00,
2013-01-17 17:15:00,24.4,11.4,30.38,NE,45,0.0,0.0,57,0.00,,,0.00,WUHU216HW,2013-01-17 23:15:00,
2013-01-17 17:20:00,24.3,11.3,30.38,NE,45,0.0,0.0,57,0.00,,,0.00,WUHU216HW,2013-01-17 23:20:00,
2013-01-17 17:25:00,24.1,11.1,30.38,NE,45,0.0,0.0,57,0.00,,,0.00,WUHU216HW,2013-01-17 23:25:00,
2013-01-17 17:30:00,23.9,11.2,30.38,NE,45,0.2,0.2,58,0.00,,,0.00,WUHU216HW,2013-01-17 23:30:00,
2013-01-17 17:35:00,23.6,11.0,30.38,NNW,338,0.0,0.2,58,0.00,,,0.00,WUHU216HW,2013-01-17 23:35:00,
2013-01-17 17:40:00,23.6,11.0,30.38,North,0,0.2,0.2,58,0.00,,,0.00,WUHU216HW,2013-01-17 23:40:00,
2013-01-17 17:45:00,23.6,11.4,30.38,North,0,0.0,0.2,59,0.00,,,0.00,WUHU216HW,2013-01-17 23:45:00,
2013-01-17 17:50:00,23.6,11.4,30.39,North,0,0.0,0.2,59,0.00,,,0.00,WUHU216HW,2013-01-17 23:50:00,
2013-01-17 17:55:00,23.5,11.3,30.39,North,0,0.0,0.2,59,0.00,,,0.00,WUHU216HW,2013-01-17 23:55:00,
2013-01-17 18:00:00,23.7,11.5,30.39,North,0,0.0,0.0,59,0.00,,,0.00,WUHU216HW,2013-01-18 00:00:00,
2013-01-17 18:05:00,24.2,12.3,30.39,North,0,0.0,0.0,60,0.00,,,0.00,WUHU216HW,2013-01-18 00:05:00,
2013-01-17 18:10:00,24.6,12.7,30.40,North,0,0.0,0.0,60,0.00,,,0.00,WUHU216HW,2013-01-18 00:10:00,
2013-01-17 18:15:00,24.9,13.0,30.40,North,0,0.0,0.0,60,0.00,,,0.00,WUHU216HW,2013-01-18 00:15:00,
2013-01-17 18:20:00,24.5,12.2,30.40,ESE,113,0.0,0.2,59,0.00,,,0.00,WUHU216HW,2013-01-18 00:20:00,
2013-01-17 18:25:00,24.0,11.8,30.40,ESE,113,0.0,0.2,59,0.00,,,0.00,WUHU216HW,2013-01-18 00:25:00,
2013-01-17 18:30:00,23.8,11.5,30.40,ESE,113,0.0,0.0,59,0.00,,,0.00,WUHU216HW,2013-01-18 00:30:00,
2013-01-17 18:35:00,23.7,11.9,30.41,ENE,68,0.0,0.0,60,0.00,,,0.00,WUHU216HW,2013-01-18 00:35:00,
2013-01-17 18:40:00,23.5,11.7,30.41,ENE,68,0.0,0.0,60,0.00,,,0.00,WUHU216HW,2013-01-18 00:40:00,
2013-01-17 18:45:00,23.3,11.5,30.41,ENE,68,0.0,0.0,60,0.00,,,0.00,WUHU216HW,2013-01-18 00:45:00,
2013-01-17 18:50:00,23.3,11.5,30.41,ENE,68,0.0,0.0,60,0.00,,,0.00,WUHU216HW,2013-01-18 00:50:00,
2013-01-17 18:55:00,22.7,11.0,30.41,ENE,68,0.0,0.0,60,0.00,,,0.00,WUHU216HW,2013-01-18 00:55:00,
2013-01-17 19:00:00,22.5,11.1,30.41,ENE,68,0.0,0.0,61,0.00,,,0.00,WUHU216HW,2013-01-18 01:00:00,
2013-01-17 19:05:00,22.3,10.9,30.41,ENE,68,0.0,0.2,61,0.00,,,0.00,WUHU216HW,2013-01-18 01:05:00,
2013-01-17 19:10:00,22.1,10.7,30.41,ENE,68,0.0,0.2,61,0.00,,,0.00,WUHU216HW,2013-01-18 01:10:00,
2013-01-17 19:15:00,22.1,11.1,30.41,ENE,68,0.0,0.0,62,0.00,,,0.00,WUHU216HW,2013-01-18 01:15:00,
2013-01-17 19:20:00,22.0,11.0,30.41,ENE,68,0.0,0.0,62,0.00,,,0.00,WUHU216HW,2013-01-18 01:20:00,
2013-01-17 19:25:00,21.9,10.9,30.41,ENE,68,0.0,0.0,62,0.00,,,0.00,WUHU216HW,2013-01-18 01:25:00,
2013-01-17 19:30:00,21.7,11.1,30.41,ENE,68,0.0,0.0,63,0.00,,,0.00,WUHU216HW,2013-01-18 01:30:00,
2013-01-17 19:35:00,21.7,11.1,30.40,ENE,68,0.0,0.0,63,0.00,,,0.00,WUHU216HW,2013-01-18 01:35:00,
2013-01-17 19:40:00,21.5,10.9,30.40,ENE,68,0.0,0.0,63,0.00,,,0.00,WUHU216HW,2013-01-18 01:40:00,
2013-01-17 19:45:00,21.4,10.8,30.41,ENE,68,0.0,0.0,63,0.00,,,0.00,WUHU216HW,2013-01-18 01:45:00,
2013-01-17 19:50:00,21.2,11.0,30.40,ENE,68,0.0,0.0,64,0.00,,,0.00,WUHU216HW,2013-01-18 01:50:00,
2013-01-17 19:55:00,21.0,10.8,30.41,East,90,0.0,0.0,64,0.00,,,0.00,WUHU216HW,2013-01-18 01:55:00,
2013-01-17 20:00:00,21.0,10.8,30.41,East,90,0.0,0.0,64,0.00,,,0.00,WUHU216HW,2013-01-18 02:00:00,
2013-01-17 20:05:00,21.0,11.1,30.41,East,90,0.0,0.0,65,0.00,,,0.00,WUHU216HW,2013-01-18 02:05:00,
2013-01-17 20:10:00,20.9,11.1,30.41,East,90,0.0,0.0,65,0.00,,,0.00,WUHU216HW,2013-01-18 02:10:00,
2013-01-17 20:15:00,20.8,11.0,30.42,East,90,0.0,0.0,65,0.00,,,0.00,WUHU216HW,2013-01-18 02:15:00,
2013-01-17 20:20:00,20.8,10.9,30.42,East,90,0.0,0.0,65,0.00,,,0.00,WUHU216HW,2013-01-18 02:20:00,
2013-01-17 20:25:00,20.6,10.7,30.42,East,90,0.0,0.0,65,0.00,,,0.00,WUHU216HW,2013-01-18 02:25:00,
2013-01-17 20:30:00,20.4,10.5,30.42,SSE,158,0.0,0.0,65,0.00,,,0.00,WUHU216HW,2013-01-18 02:30:00,
2013-01-17 20:35:00,20.2,10.3,30.42,SSE,158,0.0,0.0,65,0.00,,,0.00,WUHU216HW,2013-01-18 02:35:00,
2013-01-17 20:40:00,20.2,10.3,30.42,SSE,158,0.0,0.0,65,0.00,,,0.00,WUHU216HW,2013-01-18 02:40:00,
2013-01-17 20:45:00,19.9,10.5,30.42,SSE,158,0.0,0.0,66,0.00,,,0.00,WUHU216HW,2013-01-18 02:45:00,
2013-01-17 20:50:00,19.9,10.4,30.42,SSE,158,0.0,0.0,66,0.00,,,0.00,WUHU216HW,2013-01-18 02:50:00,
2013-01-17 20:55:00,19.9,10.4,30.42,SSE,158,0.0,0.0,66,0.00,,,0.00,WUHU216HW,2013-01-18 02:55:00,
2013-01-17 21:00:00,19.9,10.4,30.42,SSE,158,0.0,0.0,66,0.00,,,0.00,WUHU216HW,2013-01-18 03:00:00,
2013-01-17 21:05:00,19.9,10.7,30.42,SSE,158,0.0,0.0,67,0.00,,,0.00,WUHU216HW,2013-01-18 03:05:00,
2013-01-17 21:10:00,19.9,10.7,30.42,SSE,158,0.0,0.0,67,0.00,,,0.00,WUHU216HW,2013-01-18 03:10:00,
2013-01-17 21:15:00,19.9,10.7,30.42,SSE,158,0.0,0.0,67,0.00,,,0.00,WUHU216HW,2013-01-18 03:15:00,
2013-01-17 21:20:00,19.8,10.7,30.42,SSE,158,0.0,0.0,67,0.00,,,0.00,WUHU216HW,2013-01-18 03:20:00,
2013-01-17 21:25:00,19.7,10.6,30.41,SSE,158,0.0,0.0,67,0.00,,,0.00,WUHU216HW,2013-01-18 03:25:00,
2013-01-17 21:30:00,19.5,10.4,30.42,SSE,158,0.0,0.0,67,0.00,,,0.00,WUHU216HW,2013-01-18 03:30:00,
2013-01-17 21:35:00,19.5,10.7,30.42,SSE,158,0.0,0.0,68,0.00,,,0.00,WUHU216HW,2013-01-18 03:35:00,
2013-01-17 21:40:00,19.3,10.5,30.42,SSE,158,0.0,0.0,68,0.00,,,0.00,WUHU216HW,2013-01-18 03:40:00,
2013-01-17 21:45:00,19.3,10.5,30.42,SSE,158,0.0,0.0,68,0.00,,,0.00,WUHU216HW,2013-01-18 03:45:00,
2013-01-17 21:50:00,19.3,10.5,30.41,SSE,158,0.0,0.0,68,0.00,,,0.00,WUHU216HW,2013-01-18 03:50:00,
2013-01-17 21:55:00,19.3,10.8,30.41,SSE,158,0.0,0.2,69,0.00,,,0.00,WUHU216HW,2013-01-18 03:55:00,
2013-01-17 22:00:00,19.1,10.6,30.41,SSE,158,0.0,0.2,69,0.00,,,0.00,WUHU216HW,2013-01-18 04:00:00,
2013-01-17 22:05:00,19.1,10.6,30.41,SSE,158,0.0,0.0,69,0.00,,,0.00,WUHU216HW,2013-01-18 04:05:00,
2013-01-17 22:10:00,19.1,10.6,30.41,SSE,158,0.0,0.0,69,0.00,,,0.00,WUHU216HW,2013-01-18 04:10:00,
2013-01-17 22:15:00,19.0,10.6,30.41,SSE,158,0.0,0.0,69,0.00,,,0.00,WUHU216HW,2013-01-18 04:15:00,
2013-01-17 22:20:00,18.8,10.4,30.41,SSE,158,0.0,0.0,69,0.00,,,0.00,WUHU216HW,2013-01-18 04:20:00,
2013-01-17 22:25:00,18.8,10.4,30.41,South,180,0.0,0.0,69,0.00,,,0.00,WUHU216HW,2013-01-18 04:25:00,
2013-01-17 22:30:00,19.0,10.9,30.41,South,180,0.0,0.0,70,0.00,,,0.00,WUHU216HW,2013-01-18 04:30:00,
2013-01-17 22:35:00,18.8,10.7,30.40,South,180,0.0,0.0,70,0.00,,,0.00,WUHU216HW,2013-01-18 04:35:00,
2013-01-17 22:40:00,18.7,10.6,30.41,South,180,0.0,0.0,70,0.00,,,0.00,WUHU216HW,2013-01-18 04:40:00,
2013-01-17 22:45:00,18.7,10.6,30.41,South,180,0.0,0.0,70,0.00,,,0.00,WUHU216HW,2013-01-18 04:45:00,
2013-01-17 22:50:00,18.7,10.6,30.41,South,180,0.0,0.0,70,0.00,,,0.00,WUHU216HW,2013-01-18 04:50:00,
2013-01-17 22:55:00,18.5,10.7,30.40,South,180,0.0,0.0,71,0.00,,,0.00,WUHU216HW,2013-01-18 04:55:00,
2013-01-17 23:00:00,18.5,10.7,30.40,South,180,0.0,0.0,71,0.00,,,0.00,WUHU216HW,2013-01-18 05:00:00,
2013-01-17 23:01:00,18.5,10.7,30.40,South,180,0.0,0.0,71,0.00,,,0.00,WUHU216HW,2013-01-18 05:01:00,
2013-01-17 23:02:00,18.5,10.7,30.40,South,180,0.0,0.0,71,0.00,,,0.00,WUHU216HW,2013-01-18 05:02:00,
2013-01-17 23:03:00,18.5,10.7,30.41,South,180,0.0,0.0,71,0.00,,,0.00,WUHU216HW,2013-01-18 05:03:00,
2013-01-17 23:08:00,18.3,10.5,30.40,South,180,0.0,0.0,71,0.00,,,0.00,WUHU216HW,2013-01-18 05:08:00,
2013-01-17 23:13:00,18.3,10.5,30.41,South,180,0.0,0.0,71,0.00,,,0.00,WUHU216HW,2013-01-18 05:13:00,
2013-01-17 23:18:00,18.3,10.5,30.41,South,180,0.0,0.0,71,0.00,,,0.00,WUHU216HW,2013-01-18 05:18:00,
2013-01-17 23:23:00,18.3,10.8,30.41,South,180,0.0,0.0,72,0.00,,,0.00,WUHU216HW,2013-01-18 05:23:00,
2013-01-17 23:28:00,18.1,10.6,30.42,South,180,0.0,0.2,72,0.00,,,0.00,WUHU216HW,2013-01-18 05:28:00,
2013-01-17 23:33:00,18.1,10.6,30.42,South,180,0.0,0.2,72,0.00,,,0.00,WUHU216HW,2013-01-18 05:33:00,
2013-01-17 23:34:00,18.3,10.8,30.42,South,180,0.0,0.0,72,0.00,,,0.00,WUHU216HW,2013-01-18 05:34:00,
2013-01-17 23:38:00,18.3,10.8,30.42,South,180,0.0,0.2,72,0.00,,,0.00,WUHU216HW,2013-01-18 05:38:00,
2013-01-17 23:43:00,18.3,10.8,30.42,South,180,0.0,0.2,72,0.00,,,0.00,WUHU216HW,2013-01-18 05:43:00,